Theta_e
319 317 324 325 329 324 325 324 324 327 327 327 327 335 338 336 340 342 333 330 320 325 338 338 331 324 329 336 335 336 335 335 335 334 333 331 330 329 329 329 327 327 327 327 326 326 326 325 325
317 316 324 323 330 330 328 322 324 324 323 335 333 336 338 338 336 334 331 331 320 329 338 337 327 325 330 333 335 335 334 334 333 332 331 329 329 328 328 328 327 327 327 327 326 326 325 322 320
315 317 324 329 329 332 328 322 323 321 323 329 333 335 337 338 334 334 334 331 322 334 337 336 326 326 330 335 334 332 333 332 332 330 329 328 328 328 327 327 327 326 326 326 326 324 318 315 314
313 316 316 329 331 326 326 321 320 323 325 327 332 339 335 334 334 335 335 329 324 336 337 335 327 325 331 333 330 331 333 329 327 328 328 328 328 327 327 326 325 325 326 326 324 316 313 314 314
312 314 322 324 326 326 323 321 321 324 326 329 334 336 338 333 334 335 333 328 326 336 336 336 329 326 326 328 331 333 330 328 325 328 328 328 327 326 326 326 325 326 326 323 317 315 315 316 316
314 313 322 328 327 323 321 322 323 323 322 324 331 335 337 330 333 332 332 329 326 334 335 335 330 326 332 332 333 334 330 326 324 328 327 327 326 326 327 327 326 324 323 320 317 316 316 317 317
314 315 326 323 325 324 323 318 322 324 323 326 331 336 335 329 332 332 332 329 326 333 335 334 331 325 330 332 334 333 329 322 323 326 326 326 325 326 325 324 321 320 320 320 319 317 317 317 317
311 315 318 325 326 325 322 320 320 322 325 327 332 338 339 330 331 332 332 330 326 332 334 333 331 328 332 332 333 331 324 319 323 327 326 325 326 325 322 320 321 322 321 319 319 318 317 317 318
314 320 321 322 323 323 320 321 320 320 325 331 333 331 331 328 332 332 332 331 329 328 331 332 333 331 331 331 333 328 321 319 322 325 324 326 325 324 323 322 322 321 318 318 319 319 318 317 319
315 317 319 319 318 320 318 318 319 322 326 331 334 328 326 329 331 332 331 330 328 327 328 330 329 332 332 333 330 324 322 320 321 323 322 324 326 325 324 321 320 318 318 319 320 321 320 319 321
312 313 313 315 316 318 319 320 317 321 324 326 333 332 327 328 329 331 330 329 329 328 328 330 329 330 334 332 327 325 322 320 321 321 321 320 320 320 319 318 320 320 321 322 323 322 323 323 323
315 312 311 313 314 319 322 320 320 319 322 319 320 327 326 328 329 330 329 329 329 328 328 327 327 330 331 331 327 326 324 321 322 322 323 322 321 320 320 319 322 324 325 325 323 322 324 325 325
314 313 313 313 312 315 320 321 321 321 319 320 326 325 326 329 329 330 329 329 328 328 328 327 329 329 329 332 329 328 326 322 321 323 323 322 321 320 319 321 323 325 325 325 324 324 326 326 326
311 312 313 312 313 314 319 319 323 321 315 326 331 327 326 329 329 328 327 328 329 328 328 327 328 328 328 330 332 329 327 323 322 324 322 321 320 321 321 322 324 325 325 325 325 325 326 326 326
312 314 313 313 313 314 317 320 321 318 314 325 331 332 326 326 328 328 327 328 328 328 329 329 328 328 328 329 331 329 328 326 322 323 323 323 323 322 324 325 326 327 327 327 326 326 326 327 327
313 313 314 312 313 314 317 313 317 318 311 315 330 332 329 323 324 327 328 328 328 328 328 328 329 329 329 328 331 329 329 328 325 323 324 325 325 325 326 327 327 327 327 327 327 326 326 327 327
313 315 315 314 313 317 317 315 316 317 310 315 322 332 331 329 321 323 329 330 329 329 328 328 328 329 329 329 331 330 330 329 328 325 326 327 326 326 328 329 328 327 327 327 327 326 326 326 326
315 316 315 314 314 317 319 316 319 314 309 310 312 320 330 330 329 322 327 330 330 330 330 329 329 329 329 331 331 331 331 330 327 328 328 328 328 327 328 329 328 327 327 327 326 327 327 326 326
316 317 315 316 313 317 319 317 317 313 309 308 309 311 316 322 321 328 321 325 329 330 331 331 331 331 331 330 330 330 330 329 327 329 330 329 329 328 329 328 328 327 327 327 328 328 328 327 327
315 314 316 315 313 317 319 318 314 312 313 310 307 310 310 315 316 323 327 323 323 326 329 330 330 330 331 331 331 330 329 328 328 330 331 331 330 328 327 327 327 327 328 328 329 329 328 328 328
314 315 312 318 319 318 318 318 319 314 312 312 310 308 310 310 314 315 317 317 321 322 322 326 329 330 330 330 330 329 329 329 328 326 328 330 327 327 327 328 329 330 331 331 331 331 329 328 328
316 315 314 318 323 324 314 321 313 315 313 312 312 309 308 310 309 312 312 313 314 317 321 324 324 324 325 327 328 328 328 327 326 326 327 327 326 327 329 330 330 330 329 330 330 329 328 329 328
316 313 316 317 319 319 317 319 316 312 314 312 312 311 308 308 309 308 310 309 310 313 316 319 320 319 323 325 325 325 325 326 327 327 328 329 329 329 329 329 329 329 328 328 328 327 325 326 326
311 313 314 314 316 319 318 320 318 315 313 309 311 310 309 306 307 308 306 308 308 309 308 312 313 314 318 320 324 326 325 326 327 328 328 328 327 326 326 326 326 327 327 327 326 325 324 323 323
308 309 306 311 316 320 312 315 314 313 312 310 309 310 310 308 305 306 306 305 306 307 309 308 309 310 310 311 313 318 321 321 322 324 324 323 322 324 323 322 322 322 322 321 322 322 322 321 323
309 310 311 311 316 317 308 314 314 310 310 309 309 309 309 309 308 306 305 305 306 305 307 308 309 309 309 310 310 310 311 312 315 315 318 318 317 316 316 316 317 317 316 316 317 319 320 319 319
309 310 309 310 304 309 309 308 308 310 307 305 306 306 306 307 307 307 306 305 303 304 304 306 307 307 308 309 309 309 310 310 311 311 311 312 313 313 314 315 315 315 315 315 315 316 315 315 315
308 307 308 306 305 310 312 308 310 307 305 304 304 303 302 302 302 302 302 302 304 304 303 303 303 304 304 305 307 309 310 310 310 310 310 311 311 311 312 313 313 314 314 314 314 314 313 314 312
307 308 307 307 308 310 312 311 304 305 304 304 302 300 299 298 298 298 299 299 299 301 302 302 302 302 302 302 303 303 305 307 309 310 310 310 310 310 310 311 311 311 311 311 311 310 309 309 307
307 309 306 305 308 306 308 308 305 304 302 302 300 298 297 297 296 296 297 297 297 297 299 300 302 302 302 302 302 302 303 304 305 306 307 308 308 309 308 307 307 306 306 306 306 306 305 304 303
Wind_Speed
11 7 1 2 1 2 3 5 2 3 3 2 3 4 6 4 6 3 2 16 35 37 34 32 29 27 26 24 23 21 19 17 15 14 13 12 12 12 13 13 13 12 12 12 10 9 9 9 8
11 3 2 2 3 2 5 5 8 10 3 1 1 1 3 5 2 4 11 15 34 39 37 32 29 29 28 25 23 19 18 16 14 13 12 12 12 13 12 12 12 11 11 10 9 8 8 7 7
3 2 2 3 4 12 5 6 9 3 6 5 2 2 2 2 0 9 6 22 37 38 38 34 31 29 28 26 23 20 17 15 13 12 12 13 13 13 12 11 10 9 9 8 7 7 6 5 5
1 3 2 3 14 7 10 5 5 4 1 2 1 3 2 2 2 9 15 29 39 35 36 33 31 30 28 26 22 18 16 14 12 12 13 13 13 12 11 11 9 8 7 6 5 5 4 4 4
3 2 2 4 10 9 6 3 5 2 3 4 2 3 2 2 2 10 25 34 37 32 36 33 30 29 27 25 23 21 16 14 12 14 14 13 13 12 11 10 8 7 6 5 4 3 3 3 4
2 2 2 15 20 6 2 2 1 3 3 2 2 3 3 2 9 15 23 33 34 34 36 33 30 28 27 25 24 22 17 13 13 15 14 13 12 11 10 9 8 6 4 3 1 1 2 3 3
4 3 13 9 16 4 3 4 6 12 4 7 3 4 1 4 12 21 25 32 34 34 34 32 29 27 27 26 24 21 17 14 14 14 13 11 8 10 9 9 7 4 2 2 1 2 2 3 4
3 2 5 14 14 8 3 5 3 8 12 2 5 5 4 5 21 25 27 29 31 34 28 30 28 28 27 25 24 20 16 15 16 15 13 14 12 10 7 8 6 3 2 2 2 3 3 4 5
1 2 15 10 2 3 10 2 3 4 3 3 5 2 1 21 27 25 23 22 24 26 25 24 23 27 27 26 23 19 17 16 16 15 13 12 14 13 10 8 6 6 5 5 4 5 5 6 5
3 4 7 4 3 2 5 6 9 2 4 4 3 2 14 26 25 26 26 26 25 24 25 23 24 23 28 27 24 20 18 17 17 16 15 15 15 14 11 9 8 7 7 6 6 7 7 7 6
3 7 11 16 7 4 7 7 5 8 6 6 8 7 14 20 22 21 23 26 25 25 23 25 26 26 28 26 24 22 20 19 17 16 16 14 14 13 12 10 8 7 7 7 7 6 6 6 6
4 3 4 6 7 5 3 7 10 6 14 5 6 7 12 17 19 26 26 27 27 28 25 24 26 29 26 25 26 24 22 20 18 17 15 15 14 13 12 11 9 9 8 8 8 7 7 6 6
6 6 6 8 10 8 6 10 4 14 12 15 5 11 17 16 16 16 20 22 25 26 27 26 28 26 25 24 26 24 22 19 17 15 14 14 14 13 12 10 10 10 9 8 8 8 8 8 7
4 8 12 13 14 9 10 9 4 11 13 14 5 11 13 18 20 17 21 24 29 27 27 27 29 28 26 23 24 24 21 18 16 15 13 13 13 12 11 10 11 9 9 9 10 10 9 9 9
6 11 11 10 10 10 6 12 11 0 12 15 6 6 8 11 17 21 22 23 28 27 26 29 28 27 26 26 26 24 21 18 16 16 15 14 13 13 12 12 12 11 11 12 12 11 11 11 10
5 7 6 0 7 5 9 14 10 9 10 15 8 5 6 9 12 15 21 22 25 25 27 24 27 30 28 27 26 24 22 20 17 17 16 16 15 14 14 14 15 14 14 13 13 12 12 12 11
3 7 8 11 9 5 12 7 6 13 11 9 13 6 1 4 4 9 17 22 24 21 21 22 24 28 28 27 26 24 22 21 19 18 17 16 16 16 16 16 15 14 15 15 14 14 13 13 13
5 6 6 11 4 12 13 2 11 14 12 10 13 12 6 9 1 11 18 22 25 23 20 21 23 25 26 26 25 23 21 20 20 19 19 17 17 16 17 17 16 15 15 16 15 15 14 14 13
12 11 16 7 6 4 8 6 7 15 9 17 17 14 14 10 10 4 14 18 21 23 24 24 24 25 23 24 23 21 20 22 22 21 20 18 17 18 17 17 17 16 16 15 14 15 15 16 16
6 11 10 11 6 8 9 11 13 8 8 16 20 15 16 12 14 14 5 10 16 19 20 21 22 21 22 24 24 19 19 19 22 21 21 20 18 17 18 18 17 17 18 18 18 17 16 16 15
5 6 7 4 9 5 11 4 5 4 10 16 22 14 13 13 14 13 16 16 18 12 7 14 17 15 17 19 18 16 16 15 15 16 20 24 21 21 20 19 18 18 17 19 18 17 16 14 11
5 11 7 9 2 3 4 4 1 4 12 18 16 18 13 18 14 9 16 17 19 19 16 11 6 5 8 11 14 15 15 13 13 13 12 12 15 18 19 18 17 16 16 16 13 8 8 8 8
6 6 3 5 4 3 6 4 4 6 10 12 11 13 7 7 10 13 17 19 18 21 18 16 15 7 9 6 8 8 9 11 12 12 13 13 15 14 11 11 13 12 12 10 6 6 6 6 5
10 3 2 2 3 3 6 1 3 5 5 4 7 14 17 15 8 12 15 16 16 20 19 18 16 14 10 7 5 2 3 5 7 9 11 8 7 6 5 5 5 4 4 4 5 6 5 5 5
8 5 3 5 5 3 10 7 4 9 6 5 7 6 7 11 11 10 12 14 13 18 18 17 16 15 14 11 9 7 8 10 10 10 10 10 9 9 8 8 8 7 5 4 4 5 4 3 3
5 3 3 1 2 2 7 6 5 4 6 3 2 2 4 8 7 6 3 8 19 19 15 11 11 11 12 14 14 9 6 8 8 10 9 7 6 7 5 5 3 2 1 1 2 3 3 3 3
7 4 2 5 2 3 3 1 1 2 3 4 6 5 4 3 3 5 7 13 12 8 10 8 7 8 5 3 3 0 4 4 3 5 4 3 3 3 4 4 4 3 4 4 5 4 4 4 4
2 2 3 3 3 3 2 3 2 4 5 6 9 7 7 7 8 8 11 15 15 13 10 8 5 6 5 6 5 5 5 4 3 3 4 5 5 4 5 5 5 5 6 6 6 5 6 4 6
5 3 4 3 2 2 3 0 2 2 3 6 6 5 5 6 7 8 13 16 18 16 14 13 11 10 9 7 5 5 6 6 5 4 4 5 5 5 6 6 5 5 5 5 6 6 6 6 6
1 1 1 3 2 2 2 3 2 4 5 6 5 4 4 4 5 6 11 15 18 20 22 22 18 15 12 9 7 7 7 4 3 5 6 6 5 5 5 5 6 6 6 6 6 7 7 6 8
Wind_Direction
334 347 63 38 58 60 242 244 280 251 241 220 125 155 202 154 166 210 298 156 164 162 164 165 163 158 154 155 152 147 147 145 143 141 138 137 132 128 125 116 107 109 107 105 104 97 89 83 78
334 2 75 94 137 206 239 207 226 230 211 88 163 170 171 228 157 131 132 165 166 163 163 166 164 160 158 161 161 158 153 150 146 143 140 137 135 130 127 128 120 116 111 107 103 97 89 83 74
346 37 104 169 185 222 230 209 223 219 243 212 240 200 195 234 312 167 172 167 166 165 165 168 166 163 163 162 161 164 160 156 150 146 144 140 139 136 131 131 129 123 116 111 106 97 92 82 68
1 39 47 210 226 245 218 196 199 139 23 206 163 270 304 292 252 181 161 167 166 164 168 169 168 166 167 166 166 167 163 160 157 149 149 143 142 140 141 139 135 130 128 119 108 99 83 68 53
59 67 221 235 242 240 234 189 161 192 182 158 163 278 242 7 218 166 161 166 168 164 171 171 171 169 170 172 170 170 169 165 162 152 152 149 146 148 147 145 144 143 138 131 122 96 65 45 36
79 97 216 239 236 245 350 177 194 230 247 213 174 154 243 161 156 159 161 164 172 169 172 173 175 175 174 175 174 171 171 171 166 158 156 153 152 154 155 156 156 149 149 153 122 60 18 12 8
128 136 233 254 259 282 251 170 204 245 258 247 149 185 262 191 170 162 163 168 173 172 174 176 179 180 179 177 176 175 175 174 169 163 163 165 154 163 171 171 163 154 163 195 262 326 337 343 342
110 146 256 236 251 281 234 191 218 195 243 99 177 203 232 186 163 162 164 169 174 176 176 181 183 182 182 181 180 180 180 177 170 169 174 169 174 171 178 168 172 190 220 235 275 298 312 318 322
317 255 248 250 210 271 284 317 316 324 209 220 208 180 184 154 157 150 154 160 167 175 180 189 183 187 186 184 183 182 182 179 176 179 184 172 172 181 185 195 210 227 231 241 261 281 293 300 309
185 251 268 4 343 353 304 316 305 253 270 240 231 63 135 148 160 161 168 171 174 176 181 188 188 188 188 184 183 185 183 183 183 185 188 192 192 201 215 221 227 234 239 250 269 283 288 294 301
260 246 258 279 286 317 325 316 317 292 264 234 219 180 162 161 171 175 180 179 176 174 180 185 187 190 191 187 187 187 188 188 192 193 194 196 204 214 222 224 227 233 242 260 273 281 293 294 299
299 315 327 320 333 331 287 319 324 269 269 323 297 176 168 178 182 182 182 181 176 177 179 182 194 195 190 195 194 193 194 195 197 200 201 205 209 216 223 230 236 247 259 271 276 278 290 300 306
253 292 299 290 275 261 256 262 234 297 301 306 277 175 181 189 189 188 182 176 175 181 180 186 192 195 194 198 200 200 201 203 205 207 211 214 218 224 229 236 243 257 259 267 276 279 287 293 297
232 275 272 279 285 291 257 248 233 264 331 297 218 210 204 189 187 168 175 176 175 178 183 188 193 201 201 201 206 206 207 209 212 216 220 225 227 232 238 243 246 258 260 271 276 275 279 280 284
281 287 293 249 222 233 235 267 233 288 332 292 267 229 208 201 180 184 180 179 177 177 181 190 200 203 203 208 213 211 213 215 220 224 225 232 236 236 241 248 254 262 267 273 273 276 279 280 284
267 268 284 234 204 242 165 259 219 34 352 296 310 225 200 182 183 184 174 176 174 174 184 194 202 207 209 209 215 212 216 223 229 232 235 238 242 242 246 253 259 263 265 269 270 274 277 277 282
228 272 258 294 199 200 184 249 171 41 359 9 359 335 332 98 157 185 173 176 175 180 189 193 200 207 215 210 217 216 222 228 236 236 237 239 240 242 249 257 265 269 265 266 267 266 268 273 280
280 259 257 252 288 204 200 159 63 32 352 54 33 8 43 45 225 185 192 192 189 187 189 194 200 207 215 217 219 221 228 236 241 238 241 245 247 250 253 259 260 262 262 264 266 267 269 270 274
268 279 269 226 245 249 219 169 63 19 290 41 48 8 22 35 352 157 192 202 202 205 208 206 200 209 210 214 216 224 229 235 237 243 245 245 251 254 256 255 258 261 261 263 262 263 264 266 269
281 282 308 258 210 204 152 132 87 34 335 50 55 24 20 359 11 19 89 185 203 204 208 211 214 214 213 216 216 218 229 241 245 250 250 250 248 255 253 253 257 257 260 260 259 256 255 263 266
317 308 334 299 89 73 121 52 122 192 28 49 50 44 30 6 11 7 32 51 77 81 187 209 212 217 221 224 223 226 236 246 255 257 251 248 254 246 250 255 257 259 259 263 263 259 252 250 273
330 344 343 12 99 70 353 134 249 74 53 36 31 36 22 16 2 18 16 28 52 61 82 119 141 206 217 220 226 232 239 242 258 266 269 267 260 256 249 246 250 256 259 263 268 273 266 262 247
262 333 344 45 51 108 14 89 333 16 33 31 20 57 41 51 11 12 24 346 45 55 57 68 69 69 122 185 223 240 246 254 265 270 273 279 275 253 246 248 251 261 266 270 262 259 256 248 246
285 288 251 7 71 73 341 282 33 31 29 11 42 23 32 20 9 19 12 351 31 49 43 40 53 39 42 59 90 169 286 311 312 301 292 278 263 255 252 253 279 273 228 224 232 232 236 243 242
14 21 349 4 47 19 339 53 31 18 39 29 49 36 26 45 32 39 4 2 18 49 36 26 38 32 32 32 19 355 340 330 331 309 294 272 248 249 255 255 242 249 253 250 247 231 213 201 186
320 40 104 109 45 15 2 25 14 317 328 328 131 90 47 19 44 40 117 40 29 14 40 32 28 38 15 17 8 359 30 339 331 332 303 283 277 260 233 231 222 220 217 198 188 181 161 143 145
319 38 284 112 350 70 7 144 45 234 3 46 59 42 27 30 34 51 32 41 57 41 30 21 37 31 60 53 73 182 32 11 322 284 259 201 173 170 173 164 152 127 115 108 110 120 119 128 135
44 298 12 10 67 69 51 60 73 22 34 47 53 40 27 35 40 32 36 36 48 42 46 56 77 109 89 78 77 73 90 120 140 121 104 105 106 110 121 128 118 112 110 111 112 119 121 130 127
346 8 33 113 64 135 117 330 220 146 113 97 69 62 43 43 35 29 34 46 54 58 55 56 48 45 52 59 70 66 75 83 86 82 83 87 96 98 104 108 108 111 112 119 128 126 127 130 125
242 354 33 103 280 47 89 221 128 164 127 113 97 91 73 56 53 54 45 44 42 41 45 45 44 41 38 34 33 39 53 61 90 104 111 107 108 112 116 112 114 114 118 124 124 130 130 131 125